[[{"header":{"parameterUnit":"m.s-1","parameterCategory":2,"la1":30.2991,"la2":30.254,"lo1":-89.0895,"lo2":-89.0444,"dy":0.0017,"dx":0.0017,"nx":28,"ny":28,"refTime":"2023-09-06T03:00:00:Z","depth":"0","parameterNumber":2,"parameterNumberName":"U-component_of_CURRENTS"},"data":[0,0,0,0,0,0,0,0,0,0,0,0,0,0,0,0,0,0,0,0,0,0,0,0,0,0,0,0,0,0,0,0,0,0,0,0,0,0,0,0,0,0,0,0,0,0,0,0,0,0,0,0,0,0,0,0,0,0,0.2766,0.2766,0,0.277,0.277,0.277,0.2767,0.2767,0.2767,0.2767,0.2773,0.2774,0.2774,0,0,0,0,0,0,0,0,0,0,0,0,0,0.2726,0.2727,0.2766,0.2766,0.2766,0.277,0.277,0.277,0.2767,0.2767,0.2767,0.2767,0.2773,0.2774,0.2774,0,0,0,0,0,0,0,0,0,0,0,0,0,0.2737,0.2727,0.2766,0.2766,0.2767,0.277,0.277,0.277,0.2767,0.2767,0.2767,0.2767,0.2773,0.2774,0.2774,0.2775,0,0,0.2775,0.2775,0,0,0,0,0,0,0,0,0.2736,0.2738,0.2766,0.2766,0.2767,0.2769,0.2758,0.2772,0.2767,0.2765,0.2767,0.2767,0.2773,0.2774,0.2772,0.2775,0.2776,0.2775,0.2775,0.2775,0.2775,0,0,0,0,0,0,0,0.2735,0.2738,0.2766,0.2766,0.2767,0.2756,0.2758,0.2761,0.2768,0.2765,0.2765,0.2768,0.2773,0.2772,0.2772,0.2776,0.2775,0.2775,0.2775,0.2775,0.2739,0.2738,0,0,0,0,0,0,0.274,0.2737,0.2766,0.2766,0.2753,0.2757,0.2759,0.2767,0.2768,0.2768,0.2768,0.2768,0.2771,0.2772,0.2772,0.2756,0.2775,0.2775,0.2775,0.274,0.2739,0.2737,0,0,0,0,0,0,0.2739,0.2742,0.2766,0.2752,0.2755,0.2758,0.2767,0.2767,0.2766,0.277,0.2771,0.2768,0.2771,0.2772,0.2763,0.2757,0.2775,0.2775,0.2741,0.274,0.2738,0.2735,0,0,0,0,0,0,0.2738,0.2742,0.2751,0.2753,0.2756,0.2765,0.2767,0.2767,0.2769,0.2769,0.277,0.2771,0.2771,0.2763,0.2764,0.2758,0.2776,0.2743,0.2741,0.2739,0.2736,0.2733,0.273,0,0,0,0,0,0.2736,0.275,0.2751,0.2755,0.2767,0.2765,0.2765,0.2766,0.2769,0.2765,0.276,0.2771,0.275,0.2762,0.2763,0.2758,0.2744,0.2741,0.2739,0.2738,0.2734,0.2731,0,0,0,0,0,0,0.2738,0.2751,0.2753,0.277,0.2765,0.2765,0.2767,0.2766,0.276,0.2763,0.2762,0.2762,0.2755,0.275,0.2764,0.2737,0.2746,0.2744,0.2745,0.2741,0.2738,0.2734,0.2776,0,0,0,0,0,0.2742,0.2757,0.2757,0.2771,0.2768,0.2767,0.2767,0.2767,0.2763,0.2761,0.2763,0.2755,0.2745,0.2738,0.2736,0.2723,0.2755,0.2715,0.2712,0.271,0.2704,0.2727,0.2727,0.2729,0.2729,0.2729,0,0,0.2747,0.2757,0.2765,0.2772,0.277,0.277,0.2766,0.2768,0.2765,0.2764,0.2761,0.2755,0.274,0.2726,0.2721,0.2721,0.2736,0.2707,0.2705,0.27,0.2725,0.2725,0.2725,0.2728,0.2728,0.2728,0,0,0.2764,0.2769,0.2785,0.2779,0.278,0.2775,0.2775,0.2774,0.2766,0.2759,0.2755,0.2734,0.2731,0.2709,0.2698,0.2673,0.2727,0.2678,0.2655,0.2678,0.2678,0.2679,0.2772,0.2781,0.2668,0.2668,0.2668,0,0.277,0.2788,0.2786,0.2792,0.2786,0.2778,0.2778,0.277,0.2766,0.2754,0.2758,0.2732,0.2717,0.2686,0.2668,0.2668,0.272,0.2674,0.2677,0.2678,0.2679,0.2773,0.2783,0.2668,0.2668,0.2668,0.2668,0,0.2798,0.2802,0.2806,0.2812,0.2802,0.28,0.2784,0.2774,0.2765,0.2758,0.2735,0.2712,0.2697,0.2679,0.2662,0.265,0.2703,0.2682,0.2693,0.2679,0.2779,0.279,0.2667,0.2667,0.2667,0.2668,0,0,0.2831,0.2827,0.2827,0.282,0.2808,0.2801,0.2784,0.2761,0.2754,0.2739,0.273,0.268,0.268,0.2664,0.2648,0.2638,0.2693,0.2659,0.266,0.2766,0.2812,0.2887,0.2906,0.2684,0.2684,0.2684,0.29,0,0.2849,0.2857,0.285,0.2842,0.2835,0.2807,0.2789,0.2766,0.2753,0.2746,0.2707,0.2701,0.2674,0.267,0.2659,0.2689,0.2712,0.264,0.2796,0.2802,0.288,0.2916,0.28,0.2984,0.2911,0.2913,0.2914,0,0.288,0.2874,0.287,0.2839,0.2833,0.2827,0.2789,0.2777,0.2753,0.2748,0.2735,0.2728,0.2721,0.2692,0.2758,0.2725,0.2767,0.2783,0.2792,0.2863,0.2893,0.2974,0.3007,0.2944,0.2931,0.2929,0.2928,0,0.2897,0.2886,0.2878,0.2869,0.2839,0.2822,0.2805,0.2775,0.2768,0.2763,0.2785,0.2774,0.2816,0.2824,0.2881,0.2827,0.2982,0.2918,0.3033,0.3042,0.2972,0.2974,0.2965,0.2959,0.2958,0.2958,0.2957,0,0.2917,0.2908,0.2886,0.288,0.2856,0.2834,0.2819,0.2801,0.28,0.2809,0.2804,0.2844,0.2849,0.2933,0.2936,0.3067,0.3051,0.3053,0.3093,0.2974,0.2973,0.2937,0.2893,0.2966,0.2964,0.2962,0.2961,0,0.2934,0.2924,0.2909,0.2877,0.2865,0.2848,0.2831,0.2816,0.2843,0.2867,0.2875,0.2947,0.3075,0.3119,0.3192,0.3194,0.3186,0.3301,0.3206,0.3228,0.3231,0.3191,0.3124,0.3034,0.3446,0.3449,0.3452,0,0.2936,0.2935,0.2907,0.2882,0.2866,0.2844,0.2815,0.2824,0.2828,0.293,0.2948,0.31,0.3193,0.3396,0.3414,0.3504,0.3344,0.3447,0.3278,0.3242,0.3226,0.3059,0.2973,0.3213,0.3213,0.3213,0.3213,0,0.2919,0.2919,0.2898,0.2859,0.2828,0.2806,0.279,0.2808,0.2838,0.29,0.3016,0.3109,0.334,0.3398,0.3553,0.3556,0.3283,0.3459,0.3401,0.3037,0.2867,0.2797,0.3121,0.3216,0.3216,0.3215,0.3215,0.3215,0.288,0.2866,0.2835,0.2795,0.2772,0.2745,0.2708,0.2738,0.2772,0.2824,0.2991,0.31,0.3267,0.3469,0.3483,0.3449,0.3371,0.3319,0.3287,0.3132,0.2975,0.3362,0.3504,0.3505,0.3506,0.3507,0.3508,0,0.2765,0.2767,0.2752,0.2692,0.265,0.2664,0.2652,0.261,0.2631,0.2747,0.2843,0.3019,0.313,0.3242,0.3335,0.3268,0.3043,0.3182,0.2861,0.2792,0.3133,0.3051,0.3122,0.3122,0.3122,0.3122,0.3122,0.3122,0.268,0.2638,0.2648,0.2557,0.2534,0.2436,0.2415,0.2403,0.2449,0.2512,0.2603,0.2728,0.2999,0.3165,0.3165,0.3085,0.2836,0.2741,0.2726,0.2929,0.2935,0.2941,0.2852,0.2879,0.2879,0.2226,0.2221,0.2218]},{"header":{"parameterUnit":"m.s-1","parameterCategory":2,"la1":30.2991,"la2":30.254,"lo1":-89.0895,"lo2":-89.0444,"dy":0.0017,"dx":0.0017,"nx":28,"ny":28,"refTime":"2023-09-06T03:00:00:Z","depth":"0","parameterNumber":3,"parameterNumberName":"V-component_of_CURRENTS"},"data":[0,0,0,0,0,0,0,0,0,0,0,0,0,0,0,0,0,0,0,0,0,0,0,0,0,0,0,0,0,0,0,0,0,0,0,0,0,0,0,0,0,0,0,0,0,0,0,0,0,0,0,0,0,0,0,0,0,0,-0.0806,-0.0806,0,-0.0843,-0.0844,-0.0844,-0.0856,-0.0856,-0.0856,-0.0855,-0.0899,-0.09,-0.0901,0,0,0,0,0,0,0,0,0,0,0,0,0,-0.0718,-0.072,-0.0806,-0.0806,-0.0807,-0.0843,-0.0844,-0.0844,-0.0856,-0.0856,-0.0855,-0.0855,-0.0898,-0.09,-0.0901,0,0,0,0,0,0,0,0,0,0,0,0,0,-0.0755,-0.072,-0.0806,-0.0817,-0.0819,-0.0843,-0.0844,-0.0844,-0.0856,-0.0856,-0.0855,-0.0855,-0.0898,-0.09,-0.0901,-0.0917,0,0,-0.0907,-0.0908,0,0,0,0,0,0,0,0,-0.0753,-0.0759,-0.0815,-0.0817,-0.0818,-0.0845,-0.0829,-0.0869,-0.0856,-0.0841,-0.0855,-0.0855,-0.0882,-0.0885,-0.0892,-0.0919,-0.0921,-0.0907,-0.0909,-0.0909,-0.091,0,0,0,0,0,0,0,-0.0751,-0.0757,-0.082,-0.0816,-0.0818,-0.0812,-0.0817,-0.0836,-0.0862,-0.0842,-0.0844,-0.0849,-0.0883,-0.089,-0.0893,-0.0921,-0.0907,-0.0909,-0.091,-0.0911,-0.0922,-0.0921,0,0,0,0,0,0,-0.0749,-0.0755,-0.0819,-0.0821,-0.0785,-0.0814,-0.082,-0.0836,-0.0861,-0.0865,-0.0849,-0.0849,-0.0887,-0.089,-0.0894,-0.0875,-0.0909,-0.0911,-0.0912,-0.0923,-0.0922,-0.0921,0,0,0,0,0,0,-0.0747,-0.0755,-0.0817,-0.0788,-0.0796,-0.0816,-0.0834,-0.0837,-0.0841,-0.0866,-0.087,-0.085,-0.0887,-0.0892,-0.0898,-0.0878,-0.0912,-0.0914,-0.0924,-0.0923,-0.0922,-0.0861,0,0,0,0,0,0,-0.0745,-0.0755,-0.0764,-0.0789,-0.0798,-0.0822,-0.0835,-0.0838,-0.0845,-0.0846,-0.0869,-0.0872,-0.0887,-0.0894,-0.0899,-0.0881,-0.0915,-0.0925,-0.0923,-0.0922,-0.0864,-0.0858,-0.0853,0,0,0,0,0,-0.0742,-0.0758,-0.0764,-0.0772,-0.0811,-0.0822,-0.0825,-0.0838,-0.0845,-0.0842,-0.0854,-0.0872,-0.0888,-0.0895,-0.0901,-0.0883,-0.0926,-0.0924,-0.0922,-0.0867,-0.0859,-0.0853,0,0,0,0,0,0,-0.0722,-0.0761,-0.0769,-0.0796,-0.0802,-0.0824,-0.0828,-0.0836,-0.0844,-0.0844,-0.0867,-0.0871,-0.0869,-0.0886,-0.0894,-0.0881,-0.0908,-0.0907,-0.0864,-0.0857,-0.0851,-0.0831,-0.0917,0,0,0,0,0,-0.0723,-0.0747,-0.077,-0.0787,-0.0792,-0.0808,-0.0815,-0.082,-0.0833,-0.0836,-0.0848,-0.086,-0.0867,-0.0869,-0.0882,-0.0879,-0.0893,-0.0869,-0.0863,-0.0858,-0.0845,-0.0874,-0.087,-0.0915,-0.0915,-0.0915,0,0,-0.0721,-0.0745,-0.0758,-0.0784,-0.0794,-0.0777,-0.0811,-0.0817,-0.0793,-0.084,-0.0817,-0.0846,-0.0864,-0.0855,-0.0855,-0.0865,-0.0846,-0.0856,-0.0851,-0.0841,-0.0872,-0.0868,-0.0864,-0.0914,-0.0914,-0.0914,0,0,-0.0713,-0.0746,-0.0753,-0.0751,-0.0762,-0.0764,-0.0762,-0.0775,-0.0773,-0.0762,-0.0786,-0.0803,-0.0809,-0.0819,-0.0824,-0.0796,-0.082,-0.0797,-0.0747,-0.0775,-0.0772,-0.0769,-0.0754,-0.0751,-0.0788,-0.0788,-0.0788,0,-0.0703,-0.071,-0.0751,-0.0739,-0.0721,-0.075,-0.0717,-0.072,-0.0729,-0.0723,-0.0742,-0.0762,-0.0788,-0.0777,-0.0764,-0.0783,-0.0789,-0.0772,-0.0768,-0.0766,-0.0764,-0.075,-0.0747,-0.0785,-0.0785,-0.0786,-0.0786,0,-0.0689,-0.0678,-0.0678,-0.0665,-0.0654,-0.0636,-0.0633,-0.0624,-0.0628,-0.0635,-0.0637,-0.068,-0.069,-0.0703,-0.0722,-0.0717,-0.072,-0.0763,-0.0785,-0.0756,-0.0742,-0.074,-0.0781,-0.0782,-0.0783,-0.0783,0,0,-0.0688,-0.0671,-0.0662,-0.0623,-0.0606,-0.0587,-0.0551,-0.0525,-0.0497,-0.0528,-0.0498,-0.0538,-0.0582,-0.0591,-0.0633,-0.0658,-0.0651,-0.0695,-0.0698,-0.0678,-0.0677,-0.0624,-0.0617,-0.0698,-0.0698,-0.0698,-0.0663,0,-0.0648,-0.0599,-0.06,-0.0516,-0.0476,-0.0472,-0.0427,-0.0412,-0.0415,-0.04,-0.046,-0.0463,-0.0532,-0.0542,-0.0578,-0.0634,-0.0647,-0.0654,-0.071,-0.0711,-0.0667,-0.0614,-0.0586,-0.0548,-0.0661,-0.0661,-0.066,0,-0.0616,-0.058,-0.0504,-0.0417,-0.0399,-0.0352,-0.0282,-0.0251,-0.0252,-0.026,-0.0294,-0.0348,-0.0382,-0.0456,-0.0531,-0.0531,-0.0591,-0.0642,-0.0643,-0.0613,-0.0654,-0.0602,-0.0541,-0.0714,-0.0658,-0.0658,-0.0658,0,-0.0575,-0.0498,-0.0429,-0.0402,-0.0325,-0.0278,-0.0233,-0.021,-0.0168,-0.0182,-0.0159,-0.0236,-0.0252,-0.0353,-0.0454,-0.0496,-0.0525,-0.0603,-0.0606,-0.0602,-0.0597,-0.0593,-0.071,-0.0655,-0.0655,-0.0655,-0.0655,0,-0.0524,-0.0456,-0.04,-0.0357,-0.0245,-0.022,-0.012,-0.0098,-0.0062,0.0014,-0.0089,-0.0043,-0.0231,-0.0275,-0.0395,-0.046,-0.048,-0.057,-0.0588,-0.0571,-0.0564,-0.0731,-0.083,-0.0654,-0.0654,-0.0654,-0.0654,0,-0.048,-0.0452,-0.0356,-0.0266,-0.0224,-0.0146,-0.0025,0.0041,0.0057,0.0154,0.0157,0.0108,0.0063,-0.0095,-0.0236,-0.0354,-0.0524,-0.0473,-0.0411,-0.0422,-0.0601,-0.0695,-0.0781,-0.0864,-0.0475,-0.0473,-0.0472,0,-0.0448,-0.0403,-0.0291,-0.0214,-0.0162,-0.0047,0.0044,0.0097,0.0177,0.0275,0.034,0.0312,0.0347,0.0176,-0.0054,-0.0227,-0.0426,-0.034,-0.0431,-0.0577,-0.0698,-0.0773,-0.0844,-0.0394,-0.0392,-0.0391,-0.0389,0,-0.037,-0.0347,-0.0273,-0.0126,-0.0013,0.0118,0.025,0.0336,0.0423,0.0526,0.0673,0.071,0.0551,0.0387,0.0116,-0.003,-0.045,-0.0312,-0.0504,-0.0657,-0.0709,-0.0807,-0.043,-0.0376,-0.0377,-0.0378,-0.0379,-0.038,-0.0307,-0.0243,-0.0151,-0.0002,0.0128,0.0299,0.0429,0.057,0.0746,0.0937,0.094,0.1058,0.0756,0.0403,0.0157,-0.0293,-0.0332,-0.0462,-0.0562,-0.0623,-0.0713,-0.0267,-0.0216,-0.0216,-0.0216,-0.0217,-0.0217,0,-0.0203,-0.0136,-0.001,0.0173,0.0338,0.0381,0.059,0.0731,0.0976,0.114,0.1287,0.1254,0.0878,0.0448,-0.0146,-0.0496,-0.067,-0.0704,-0.0855,-0.0919,-0.0555,-0.0565,-0.0537,-0.0537,-0.0537,-0.0537,-0.0537,-0.0537,-0.0138,-0.0014,0.0048,0.034,0.0475,0.0706,0.0837,0.1032,0.1187,0.1448,0.1556,0.1589,0.1298,0.0171,-0.0632,-0.083,-0.1116,-0.1136,-0.1303,-0.1114,-0.1102,-0.109,-0.1126,-0.1216,-0.1217,-0.164,-0.1644,-0.1647]}],[{"header":{"parameterUnit":"m.s-1","parameterCategory":2,"la1":30.2991,"la2":30.254,"lo1":-89.0895,"lo2":-89.0444,"dy":0.0017,"dx":0.0017,"nx":28,"ny":28,"refTime":"2023-09-06T03:00:00:Z","depth":"2","parameterNumber":2,"parameterNumberName":"U-component_of_CURRENTS"},"data":[0,0,0,0,0,0,0,0,0,0,0,0,0,0,0,0,0,0,0,0,0,0,0,0,0,0,0,0,0,0,0,0,0,0,0,0,0,0,0,0,0,0,0,0,0,0,0,0,0,0,0,0,0,0,0,0,0,0,0.1346,0.1346,0,0.1427,0.1428,0.1429,0.145,0.1449,0.1449,0.1448,0.15,0.1502,0.1504,0,0,0,0,0,0,0,0,0,0,0,0,0,0.1261,0.1262,0.1345,0.1346,0.1347,0.1427,0.1428,0.1429,0.145,0.1449,0.1448,0.1448,0.15,0.1502,0.1504,0,0,0,0,0,0,0,0,0,0,0,0,0,0.1316,0.1263,0.1345,0.1367,0.137,0.1427,0.1428,0.1429,0.145,0.1449,0.1448,0.1448,0.1499,0.1502,0.1504,0.1537,0,0,0.1513,0.1514,0,0,0,0,0,0,0,0,0.1312,0.1319,0.1363,0.1366,0.1369,0.1427,0.1417,0.1464,0.145,0.142,0.1448,0.1447,0.1474,0.1479,0.1496,0.154,0.1542,0.1513,0.1515,0.1516,0.1517,0,0,0,0,0,0,0,0.1309,0.1316,0.1378,0.1364,0.1368,0.1391,0.1398,0.1427,0.145,0.1422,0.1424,0.1433,0.1475,0.1493,0.1497,0.1543,0.1513,0.1516,0.1517,0.1519,0.1656,0.1658,0,0,0,0,0,0,0.1297,0.1312,0.1375,0.138,0.1338,0.1393,0.14,0.1409,0.145,0.1456,0.1434,0.1434,0.1489,0.1494,0.1499,0.159,0.1516,0.1519,0.152,0.1655,0.1657,0.1659,0,0,0,0,0,0,0.1294,0.1301,0.1372,0.1348,0.1358,0.1395,0.1405,0.1411,0.1434,0.1459,0.1464,0.145,0.1489,0.1495,0.1541,0.1589,0.152,0.1523,0.1652,0.1655,0.1658,0.1739,0,0,0,0,0,0,0.1292,0.13,0.1308,0.1347,0.1359,0.1418,0.1406,0.1414,0.144,0.1441,0.1475,0.1479,0.1488,0.1537,0.1544,0.1592,0.1525,0.165,0.1654,0.1657,0.1733,0.1744,0.1753,0,0,0,0,0,0.1288,0.1306,0.1308,0.1316,0.1367,0.142,0.1429,0.1452,0.1442,0.1466,0.1487,0.1478,0.1566,0.1541,0.1549,0.1599,0.1648,0.1652,0.1657,0.1729,0.1742,0.1753,0,0,0,0,0,0,0.128,0.1311,0.1313,0.134,0.138,0.1423,0.1449,0.1457,0.1493,0.1492,0.1503,0.1511,0.157,0.1571,0.1544,0.1649,0.1605,0.1612,0.1658,0.167,0.168,0.1687,0.1527,0,0,0,0,0,0.1279,0.1296,0.1335,0.1359,0.1378,0.1412,0.1435,0.1453,0.1487,0.1502,0.1526,0.1555,0.1596,0.1619,0.165,0.1708,0.1724,0.1744,0.1754,0.1762,0.1774,0.1823,0.1839,0.1674,0.1674,0.1674,0,0,0.1281,0.1302,0.1311,0.1357,0.1388,0.144,0.1425,0.1469,0.1519,0.1502,0.1574,0.1588,0.1616,0.1685,0.1712,0.1693,0.1826,0.1768,0.1775,0.1782,0.183,0.1846,0.186,0.1677,0.1676,0.1676,0,0,0.1307,0.1316,0.1345,0.1384,0.1433,0.1462,0.1474,0.1525,0.1554,0.1621,0.1623,0.1663,0.1727,0.176,0.1783,0.1863,0.1871,0.1876,0.194,0.1988,0.2002,0.2015,0.2087,0.2105,0.1886,0.1886,0.1886,0,0.131,0.1357,0.1365,0.1416,0.146,0.1473,0.1535,0.1571,0.1632,0.1672,0.1654,0.1759,0.1767,0.1859,0.1886,0.1887,0.1923,0.1893,0.2001,0.2014,0.2025,0.2096,0.2115,0.189,0.189,0.1889,0.1889,0,0.1368,0.1412,0.1438,0.1504,0.155,0.1606,0.1657,0.1703,0.1731,0.1772,0.1859,0.1876,0.1942,0.195,0.1946,0.2039,0.2045,0.2003,0.197,0.2046,0.2117,0.2135,0.1897,0.1895,0.1894,0.1893,0,0,0.137,0.146,0.1473,0.1524,0.1605,0.1652,0.1735,0.1826,0.1884,0.1936,0.2022,0.208,0.2082,0.2107,0.2104,0.2137,0.2246,0.2112,0.2112,0.2184,0.2388,0.2322,0.2336,0.2227,0.223,0.2232,0.2416,0,0.1423,0.1524,0.1561,0.1672,0.1736,0.1784,0.1862,0.1938,0.1994,0.2074,0.2107,0.2178,0.2146,0.2176,0.2213,0.2228,0.2294,0.2202,0.2304,0.2308,0.2238,0.2353,0.2162,0.2303,0.2434,0.2437,0.2439,0,0.1482,0.1544,0.1657,0.1768,0.18,0.1868,0.1993,0.2062,0.2164,0.2204,0.2279,0.2302,0.2383,0.2319,0.2429,0.2377,0.2405,0.2408,0.2414,0.2334,0.2275,0.2242,0.2331,0.2469,0.2467,0.2465,0.2463,0,0.1497,0.1617,0.1709,0.1751,0.1872,0.1939,0.2005,0.2112,0.2184,0.2288,0.2355,0.2435,0.2495,0.2531,0.2567,0.2509,0.2676,0.2592,0.2577,0.2574,0.242,0.2397,0.2689,0.2689,0.2689,0.2688,0.2688,0,0.1549,0.1627,0.1724,0.178,0.1895,0.1965,0.2088,0.2156,0.2264,0.2343,0.2424,0.2502,0.255,0.2647,0.2642,0.2692,0.2757,0.2625,0.2623,0.2445,0.2423,0.2553,0.2535,0.2695,0.2693,0.2692,0.2691,0,0.1571,0.163,0.1745,0.1869,0.191,0.1996,0.2136,0.2201,0.2313,0.2419,0.2462,0.2602,0.2693,0.2762,0.2832,0.2802,0.2832,0.284,0.2644,0.2613,0.2681,0.2665,0.2827,0.2826,0.2826,0.2825,0.2825,0,0.1593,0.1653,0.1796,0.1845,0.191,0.2029,0.209,0.2212,0.2269,0.2459,0.2496,0.2661,0.2717,0.2853,0.2829,0.2863,0.2879,0.2705,0.253,0.2717,0.2699,0.2683,0.2668,0.2386,0.2382,0.2379,0.2376,0,0.1638,0.169,0.177,0.1864,0.1942,0.2026,0.212,0.217,0.2284,0.238,0.2485,0.2559,0.2701,0.264,0.2718,0.2689,0.2667,0.2636,0.2922,0.2357,0.2308,0.2287,0.2286,0.2347,0.235,0.2352,0.2354,0.2355,0.1656,0.1715,0.1794,0.1883,0.1952,0.1984,0.2008,0.207,0.2142,0.2213,0.2346,0.2389,0.2463,0.2443,0.2404,0.2387,0.2528,0.2407,0.2414,0.2425,0.2318,0.2268,0.2282,0.2285,0.2287,0.2289,0.229,0,0.1649,0.1714,0.1792,0.1868,0.1881,0.1943,0.1986,0.195,0.1953,0.2058,0.2111,0.1988,0.2002,0.208,0.2014,0.2028,0.1977,0.1939,0.1853,0.1886,0.1914,0.1775,0.1599,0.1596,0.1594,0.1591,0,0,0.164,0.1695,0.1737,0.1761,0.1798,0.1767,0.1756,0.1706,0.1743,0.1712,0.1736,0.1898,0.203,0.1774,0.1768,0.1676,0.1754,0.1612,0.2179,0.2112,0.2136,0.2212,0.2039,0,0,0,0,0]},{"header":{"parameterUnit":"m.s-1","parameterCategory":2,"la1":30.2991,"la2":30.254,"lo1":-89.0895,"lo2":-89.0444,"dy":0.0017,"dx":0.0017,"nx":28,"ny":28,"refTime":"2023-09-06T03:00:00:Z","depth":"2","parameterNumber":3,"parameterNumberName":"V-component_of_CURRENTS"},"data":[0,0,0,0,0,0,0,0,0,0,0,0,0,0,0,0,0,0,0,0,0,0,0,0,0,0,0,0,0,0,0,0,0,0,0,0,0,0,0,0,0,0,0,0,0,0,0,0,0,0,0,0,0,0,0,0,0,0,0.0149,0.0149,0,0.0097,0.0096,0.0096,0.0026,0.0025,0.0024,0.0023,-0.0086,-0.0088,-0.009,0,0,0,0,0,0,0,0,0,0,0,0,0,0.0171,0.0171,0.0149,0.0149,0.0148,0.0097,0.0096,0.0095,0.0026,0.0025,0.0024,0.0023,-0.0085,-0.0088,-0.009,0,0,0,0,0,0,0,0,0,0,0,0,0,0.0144,0.0171,0.0149,0.0108,0.0104,0.0097,0.0096,0.0095,0.0027,0.0025,0.0023,0.0022,-0.0085,-0.0087,-0.009,-0.0077,0,0,-0.0099,-0.01,0,0,0,0,0,0,0,0,0.0145,0.0143,0.0115,0.0111,0.0107,0.0067,0.0064,0.0035,0.0027,0.0055,0.0023,0.0021,-0.0038,-0.0045,-0.0052,-0.0082,-0.0087,-0.0099,-0.0101,-0.0102,-0.0103,0,0,0,0,0,0,0,0.0147,0.0144,0.0127,0.0115,0.011,0.0086,0.0081,0.0058,0.0016,0.0052,0.0047,0.0044,-0.0041,-0.0049,-0.0055,-0.0088,-0.0099,-0.0102,-0.0104,-0.0105,-0.0213,-0.0214,0,0,0,0,0,0,0.0159,0.0147,0.0129,0.0126,0.0124,0.0088,0.0081,0.0081,0.0017,0.0007,0.0045,0.0041,-0.0043,-0.0052,-0.0059,-0.0135,-0.0102,-0.0105,-0.0107,-0.0212,-0.0213,-0.0215,0,0,0,0,0,0,0.016,0.0158,0.0131,0.0136,0.0131,0.0089,0.0089,0.0081,0.0061,0.0013,0.0001,0.0034,-0.0045,-0.0055,-0.0098,-0.0137,-0.0106,-0.0109,-0.0211,-0.0212,-0.0214,-0.0231,0,0,0,0,0,0,0.016,0.0159,0.0159,0.0137,0.0131,0.0125,0.009,0.0081,0.0063,0.0056,-0.0001,-0.0012,-0.0047,-0.0093,-0.0101,-0.014,-0.0111,-0.0209,-0.0211,-0.0214,-0.0229,-0.0233,-0.0236,0,0,0,0,0,0.0162,0.0171,0.016,0.0157,0.0134,0.0125,0.012,0.0084,0.0064,0.006,0.0011,-0.0011,-0.0113,-0.0096,-0.0104,-0.0146,-0.0208,-0.0211,-0.0213,-0.0227,-0.0232,-0.0236,0,0,0,0,0,0,0.0173,0.0164,0.0151,0.0155,0.014,0.0114,0.0107,0.0088,0.0049,0.0035,-0.0013,-0.0027,-0.0083,-0.0103,-0.0082,-0.0184,-0.0169,-0.0173,-0.0177,-0.0181,-0.0185,-0.0179,-0.0114,0,0,0,0,0,0.0181,0.0187,0.017,0.0171,0.0166,0.0138,0.0129,0.0106,0.0073,0.0054,0.001,-0.0043,-0.0096,-0.0128,-0.0167,-0.021,-0.021,-0.0246,-0.025,-0.0253,-0.0254,-0.0294,-0.0301,-0.0223,-0.0223,-0.0223,0,0,0.0185,0.0181,0.0182,0.0174,0.0158,0.0144,0.0128,0.0114,0.0083,0.0049,-0.0009,-0.0049,-0.0107,-0.0169,-0.0197,-0.0194,-0.0269,-0.0256,-0.0258,-0.0258,-0.0297,-0.0305,-0.0311,-0.0225,-0.0225,-0.0224,0,0,0.0196,0.0193,0.0199,0.0189,0.0172,0.0152,0.015,0.0119,0.0084,0.0038,-0.0009,-0.0068,-0.0136,-0.0196,-0.0234,-0.0276,-0.0282,-0.0294,-0.0318,-0.0357,-0.0364,-0.037,-0.0349,-0.0353,-0.0304,-0.0304,-0.0304,0,0.0196,0.0201,0.0198,0.0195,0.018,0.0155,0.0144,0.011,0.0062,0.003,0.0015,-0.0108,-0.0155,-0.0246,-0.0276,-0.0287,-0.0286,-0.0297,-0.0362,-0.0368,-0.0373,-0.0351,-0.0355,-0.0306,-0.0305,-0.0305,-0.0305,0,0.0209,0.0204,0.0207,0.019,0.0176,0.0166,0.0124,0.0094,0.005,0.0009,-0.0077,-0.0143,-0.0213,-0.0253,-0.0285,-0.0362,-0.0336,-0.0354,-0.0347,-0.0382,-0.0356,-0.036,-0.0307,-0.0307,-0.0306,-0.0306,0,0,0.022,0.0218,0.0213,0.0207,0.0172,0.0166,0.0111,0.006,0.0035,-0.0047,-0.009,-0.0218,-0.0242,-0.0286,-0.0335,-0.039,-0.0428,-0.0394,-0.0396,-0.0366,-0.047,-0.0436,-0.0436,-0.046,-0.0461,-0.0463,-0.0424,0,0.0222,0.0227,0.0214,0.0195,0.0192,0.015,0.0113,0.0059,0.001,-0.0034,-0.0136,-0.0187,-0.0259,-0.028,-0.0357,-0.0394,-0.0445,-0.0434,-0.0447,-0.0446,-0.0407,-0.0444,-0.0426,-0.039,-0.0428,-0.0428,-0.0429,0,0.0227,0.0233,0.0225,0.021,0.0204,0.0183,0.0134,0.0099,0.0023,-0.0012,-0.0096,-0.0143,-0.0238,-0.0282,-0.0396,-0.0382,-0.0434,-0.0475,-0.0475,-0.0443,-0.0422,-0.0369,-0.0396,-0.0435,-0.0435,-0.0434,-0.0434,0,0.024,0.0233,0.023,0.0222,0.02,0.0179,0.0159,0.0099,0.0095,0.0015,0.0028,-0.0108,-0.0127,-0.0246,-0.033,-0.0361,-0.0421,-0.0466,-0.0489,-0.0483,-0.0471,-0.0463,-0.0561,-0.0561,-0.0561,-0.0561,-0.0562,0,0.0247,0.024,0.0241,0.0238,0.0244,0.0209,0.0209,0.0168,0.0149,0.0183,0.0054,0.0076,-0.0122,-0.0172,-0.0289,-0.0373,-0.0386,-0.0491,-0.0487,-0.0472,-0.0465,-0.0515,-0.051,-0.056,-0.056,-0.0561,-0.0561,0,0.025,0.025,0.0252,0.0245,0.0251,0.0251,0.0276,0.0291,0.0261,0.0313,0.0305,0.0225,0.0159,-0.0007,-0.0156,-0.0279,-0.0384,-0.0416,-0.0353,-0.0345,-0.043,-0.0426,-0.0448,-0.0446,-0.0445,-0.0445,-0.0444,0,0.0256,0.0256,0.0269,0.0299,0.0297,0.0314,0.0346,0.0336,0.0389,0.0434,0.0488,0.0429,0.041,0.0207,-0.0035,-0.0228,-0.0293,-0.0333,-0.0428,-0.0432,-0.0426,-0.0424,-0.0422,-0.0397,-0.0396,-0.0395,-0.0394,0,0.0264,0.0259,0.0271,0.0341,0.0382,0.0449,0.0509,0.0581,0.0617,0.067,0.0763,0.075,0.0546,0.0329,0.0043,-0.0095,-0.0311,-0.0321,-0.035,-0.043,-0.0383,-0.0377,-0.0377,-0.0387,-0.0388,-0.0388,-0.0389,-0.0389,0.0274,0.0288,0.0321,0.0392,0.0463,0.0596,0.0677,0.077,0.0884,0.0982,0.0971,0.0943,0.0679,0.03,0.0057,-0.0219,-0.0233,-0.0349,-0.0353,-0.0357,-0.0361,-0.0315,-0.0303,-0.0303,-0.0303,-0.0303,-0.0303,0,0.0303,0.0322,0.0385,0.0492,0.0612,0.0638,0.08,0.0891,0.1049,0.1103,0.1141,0.0926,0.0674,0.0382,-0.003,-0.0272,-0.0322,-0.0335,-0.0364,-0.0368,-0.0373,-0.038,-0.0326,-0.0326,-0.0327,-0.0328,0,0,0.0324,0.0377,0.0416,0.0618,0.0709,0.0875,0.0985,0.1094,0.1161,0.1217,0.1184,0.1096,0.0759,0.0462,0.0129,-0.0102,-0.0179,-0.0141,-0.0096,-0.0095,-0.0097,-0.0352,-0.0363,0,0,0,0,0]}],[{"header":{"parameterUnit":"m.s-1","parameterCategory":2,"la1":30.2991,"la2":30.254,"lo1":-89.0895,"lo2":-89.0444,"dy":0.0017,"dx":0.0017,"nx":28,"ny":28,"refTime":"2023-09-06T03:00:00:Z","depth":"4","parameterNumber":2,"parameterNumberName":"U-component_of_CURRENTS"},"data":[0,0,0,0,0,0,0,0,0,0,0,0,0,0,0,0,0,0,0,0,0,0,0,0,0,0,0,0,0,0,0,0,0,0,0,0,0,0,0,0,0,0,0,0,0,0,0,0,0,0,0,0,0,0,0,0,0,0,0.0703,0.0704,0,0.0759,0.0759,0.076,0.0798,0.0798,0.0799,0.0799,0.0865,0.0866,0.0867,0,0,0,0,0,0,0,0,0,0,0,0,0,0.0617,0.0618,0.0703,0.0704,0.0705,0.0759,0.0759,0.076,0.0798,0.0798,0.0799,0.08,0.0864,0.0866,0.0867,0,0,0,0,0,0,0,0,0,0,0,0,0,0.0659,0.0618,0.0703,0.0732,0.0736,0.0759,0.0759,0.076,0.0797,0.0798,0.0799,0.08,0.0864,0.0865,0.0867,0.0862,0,0,0.0873,0.0874,0,0,0,0,0,0,0,0,0.0656,0.0661,0.0727,0.073,0.0734,0.0775,0.0753,0.0796,0.0797,0.0771,0.0799,0.08,0.0837,0.0841,0.0845,0.0866,0.0868,0.0873,0.0874,0.0875,0.0876,0,0,0,0,0,0,0,0.0653,0.0659,0.0722,0.0728,0.0733,0.0739,0.0745,0.0761,0.0796,0.0773,0.0777,0.0787,0.0838,0.0843,0.0847,0.0869,0.0873,0.0875,0.0876,0.0877,0.0962,0.0963,0,0,0,0,0,0,0.0652,0.0657,0.072,0.0724,0.07,0.074,0.0747,0.0758,0.0796,0.0804,0.0787,0.0789,0.084,0.0845,0.085,0.091,0.0875,0.0877,0.0878,0.0961,0.0962,0.0963,0,0,0,0,0,0,0.065,0.0657,0.0718,0.0694,0.0702,0.0741,0.0753,0.0759,0.0783,0.0807,0.0814,0.0807,0.0841,0.0847,0.0883,0.0911,0.0878,0.0879,0.0959,0.0961,0.0963,0.0991,0,0,0,0,0,0,0.0647,0.0656,0.0671,0.0694,0.0704,0.0742,0.0753,0.076,0.0789,0.0793,0.0826,0.0832,0.0842,0.0881,0.0885,0.0913,0.0881,0.0958,0.096,0.0962,0.0988,0.0993,0.0997,0,0,0,0,0,0.0644,0.0661,0.0671,0.0679,0.072,0.0742,0.0748,0.0776,0.0789,0.08,0.0828,0.0832,0.0898,0.0883,0.0888,0.0917,0.0957,0.096,0.0962,0.0986,0.0992,0.0997,0,0,0,0,0,0,0.0632,0.0667,0.0679,0.0706,0.0727,0.075,0.0768,0.0784,0.0813,0.0823,0.0843,0.085,0.0897,0.09,0.0883,0.0948,0.093,0.0933,0.0947,0.0952,0.0957,0.0963,0.0882,0,0,0,0,0,0.0635,0.0659,0.0685,0.0708,0.072,0.0745,0.0761,0.0778,0.0805,0.0819,0.0843,0.0873,0.0908,0.0924,0.095,0.0978,0.0995,0.1002,0.1006,0.101,0.1019,0.1073,0.1084,0.0972,0.0972,0.0972,0,0,0.0636,0.066,0.0674,0.0708,0.0727,0.0742,0.0757,0.0785,0.0807,0.0821,0.0862,0.0892,0.0921,0.0961,0.0981,0.0968,0.1048,0.1013,0.1016,0.1024,0.1077,0.1088,0.1098,0.0974,0.0973,0.0973,0,0,0.0636,0.0672,0.0683,0.0701,0.0734,0.0754,0.0765,0.0795,0.0821,0.0858,0.0884,0.0928,0.0968,0.0998,0.1018,0.1061,0.1075,0.1072,0.1097,0.1149,0.1159,0.1167,0.1192,0.1203,0.1069,0.1069,0.107,0,0.0635,0.0655,0.0689,0.07,0.0723,0.076,0.0773,0.0801,0.0842,0.0874,0.0877,0.0971,0.0987,0.1054,0.107,0.1072,0.1098,0.1072,0.1155,0.1164,0.1173,0.1196,0.1208,0.1071,0.1071,0.1071,0.1071,0,0.0634,0.0654,0.0664,0.0695,0.0725,0.0745,0.0788,0.0826,0.0865,0.0898,0.0978,0.1011,0.1072,0.1083,0.1089,0.1164,0.1161,0.1158,0.114,0.1186,0.1207,0.1219,0.1074,0.1073,0.1072,0.1072,0,0,0.0613,0.0654,0.0657,0.0671,0.0727,0.0748,0.0802,0.0862,0.092,0.0961,0.1042,0.109,0.1126,0.1152,0.1174,0.1211,0.1282,0.1212,0.1214,0.1234,0.139,0.1337,0.1344,0.1302,0.1305,0.1307,0.1377,0,0.0598,0.061,0.0647,0.0676,0.0687,0.0754,0.0812,0.0878,0.0948,0.1036,0.1091,0.1179,0.1148,0.1206,0.1233,0.1295,0.1317,0.1262,0.1346,0.1348,0.1293,0.1357,0.1314,0.1385,0.1388,0.139,0.1391,0,0.0577,0.0593,0.0607,0.0677,0.0694,0.0729,0.0847,0.0911,0.1041,0.1108,0.1195,0.1253,0.1339,0.1308,0.1398,0.1372,0.1378,0.1398,0.1401,0.1352,0.1316,0.1334,0.1412,0.1411,0.1409,0.1408,0.1406,0,0.0526,0.0569,0.0583,0.06,0.0683,0.0727,0.0802,0.093,0.1012,0.118,0.1259,0.1357,0.1432,0.1472,0.1503,0.1471,0.1596,0.1555,0.1498,0.1493,0.1505,0.1495,0.1599,0.1599,0.1598,0.1598,0.1598,0,0.049,0.0502,0.0563,0.0563,0.0631,0.0712,0.0825,0.0919,0.1075,0.1189,0.13,0.1391,0.148,0.1553,0.1558,0.1577,0.1637,0.152,0.152,0.1512,0.1503,0.1512,0.1501,0.1601,0.16,0.16,0.1599,0,0.042,0.0457,0.0474,0.0554,0.0599,0.0654,0.0831,0.0924,0.1075,0.1232,0.1295,0.1442,0.1558,0.1618,0.1704,0.1641,0.1676,0.1653,0.1652,0.1648,0.1515,0.1505,0.16,0.1599,0.1599,0.1598,0.1597,0,0.0384,0.0376,0.0448,0.0497,0.0537,0.0651,0.0752,0.0916,0.1022,0.1247,0.1312,0.1471,0.1561,0.1639,0.1697,0.1734,0.1693,0.1681,0.1577,0.1531,0.1522,0.1513,0.1504,0.1596,0.1596,0.1595,0.1595,0,0.0306,0.0324,0.0339,0.0433,0.0525,0.0648,0.0793,0.0854,0.1065,0.1184,0.133,0.1414,0.1536,0.1609,0.166,0.1665,0.1688,0.167,0.167,0.1572,0.1527,0.1516,0.1509,0.1592,0.1593,0.1593,0.1593,0,0.0249,0.0243,0.0275,0.0374,0.0485,0.0615,0.071,0.0855,0.0973,0.1201,0.124,0.1413,0.1531,0.1574,0.1622,0.1646,0.1595,0.151,0.1517,0.1521,0.1464,0.1392,0.1436,0,0,0,0,0,0.0197,0.0195,0.0245,0.0348,0.0461,0.0557,0.0727,0.0832,0.1001,0.1082,0.1164,0.1287,0.1393,0.1466,0.1474,0.1565,0.1585,0.1563,0.1485,0.1575,0.1579,0.1519,0,0,0,0,0,0,0.0161,0.0171,0.0198,0.0309,0.0402,0.0548,0.0664,0.0798,0.0858,0.1017,0.1087,0.1197,0.1319,0.1381,0.1445,0.1466,0.1389,0.1657,0.1653,0.1573,0.1577,0.1579,0.1519,0,0,0,0,0]},{"header":{"parameterUnit":"m.s-1","parameterCategory":2,"la1":30.2991,"la2":30.254,"lo1":-89.0895,"lo2":-89.0444,"dy":0.0017,"dx":0.0017,"nx":28,"ny":28,"refTime":"2023-09-06T03:00:00:Z","depth":"4","parameterNumber":3,"parameterNumberName":"V-component_of_CURRENTS"},"data":[0,0,0,0,0,0,0,0,0,0,0,0,0,0,0,0,0,0,0,0,0,0,0,0,0,0,0,0,0,0,0,0,0,0,0,0,0,0,0,0,0,0,0,0,0,0,0,0,0,0,0,0,0,0,0,0,0,0,0.0343,0.0343,0,0.0334,0.0334,0.0334,0.0325,0.0324,0.0324,0.0324,0.0308,0.0307,0.0307,0,0,0,0,0,0,0,0,0,0,0,0,0,0.0354,0.0354,0.0343,0.0343,0.0343,0.0334,0.0334,0.0334,0.0325,0.0324,0.0324,0.0324,0.0308,0.0307,0.0307,0,0,0,0,0,0,0,0,0,0,0,0,0,0.0348,0.0354,0.0343,0.0337,0.0336,0.0334,0.0334,0.0334,0.0325,0.0324,0.0324,0.0324,0.0308,0.0308,0.0307,0.0309,0,0,0.0306,0.0306,0,0,0,0,0,0,0,0,0.0348,0.0347,0.0338,0.0337,0.0336,0.033,0.0332,0.0325,0.0325,0.0329,0.0324,0.0324,0.0315,0.0314,0.0313,0.0308,0.0308,0.0306,0.0305,0.0305,0.0305,0,0,0,0,0,0,0,0.0349,0.0348,0.034,0.0338,0.0337,0.0335,0.0334,0.0331,0.0323,0.0329,0.0328,0.0327,0.0314,0.0313,0.0312,0.0307,0.0306,0.0305,0.0305,0.0305,0.0315,0.0316,0,0,0,0,0,0,0.0349,0.0348,0.034,0.0339,0.0342,0.0335,0.0334,0.0333,0.0323,0.0322,0.0327,0.0326,0.0314,0.0313,0.0312,0.0339,0.0305,0.0305,0.0305,0.0315,0.0315,0.0316,0,0,0,0,0,0,0.035,0.0349,0.034,0.0343,0.0342,0.0335,0.0334,0.0332,0.0335,0.0322,0.032,0.0331,0.0314,0.0312,0.0318,0.0338,0.0305,0.0304,0.0314,0.0315,0.0316,0.0378,0,0,0,0,0,0,0.035,0.0349,0.0353,0.0343,0.0342,0.0347,0.0334,0.0332,0.0334,0.0334,0.0325,0.0323,0.0314,0.0318,0.0317,0.0336,0.0304,0.0313,0.0314,0.0315,0.0375,0.0381,0.0386,0,0,0,0,0,0.035,0.0355,0.0353,0.0352,0.0346,0.0348,0.0348,0.0342,0.0335,0.0342,0.0337,0.0324,0.0324,0.0319,0.0317,0.0337,0.0313,0.0314,0.0315,0.0373,0.038,0.0386,0,0,0,0,0,0,0.036,0.0354,0.0352,0.0354,0.0355,0.0346,0.0353,0.0346,0.0347,0.0347,0.0332,0.0331,0.0342,0.0328,0.0323,0.0341,0.0315,0.0316,0.036,0.0366,0.0371,0.0376,0.0304,0,0,0,0,0,0.0365,0.0369,0.0363,0.0367,0.0369,0.0362,0.0363,0.0359,0.0356,0.0356,0.0351,0.0344,0.0345,0.0347,0.0342,0.0354,0.0314,0.0364,0.0369,0.0374,0.0376,0.0334,0.0336,0.032,0.032,0.032,0,0,0.0369,0.0368,0.0369,0.037,0.037,0.0388,0.0363,0.0368,0.0386,0.0354,0.0377,0.0362,0.0351,0.0366,0.037,0.0358,0.0354,0.0375,0.038,0.0379,0.0335,0.0337,0.0338,0.0321,0.0321,0.0321,0,0,0.0387,0.0381,0.0395,0.0401,0.0406,0.0406,0.041,0.0407,0.0409,0.0425,0.0407,0.0403,0.0408,0.0402,0.04,0.0429,0.0382,0.0429,0.0463,0.0424,0.0424,0.0425,0.0364,0.0358,0.0434,0.0434,0.0434,0,0.0395,0.0413,0.04,0.0421,0.0434,0.0418,0.0445,0.0448,0.0448,0.0449,0.0442,0.0436,0.0426,0.0436,0.0451,0.0441,0.0402,0.0444,0.043,0.043,0.0429,0.0366,0.0359,0.0437,0.0437,0.0436,0.0436,0,0.0426,0.0448,0.0458,0.0483,0.0493,0.0512,0.0516,0.0523,0.0523,0.0517,0.0522,0.0504,0.0494,0.0496,0.0488,0.0483,0.045,0.044,0.0415,0.0434,0.0367,0.0359,0.0442,0.0441,0.044,0.0439,0,0,0.0428,0.0473,0.0479,0.0508,0.053,0.0542,0.057,0.0585,0.0594,0.059,0.0593,0.0598,0.0566,0.0561,0.0539,0.0516,0.0476,0.0484,0.048,0.0424,0.0369,0.0326,0.0312,0.0464,0.0463,0.0463,0.032,0,0.0462,0.0521,0.0531,0.059,0.0623,0.0622,0.065,0.0656,0.0651,0.0646,0.0618,0.0614,0.0597,0.0588,0.0562,0.0495,0.0459,0.0515,0.0358,0.0353,0.0314,0.0303,0.046,0.0313,0.0311,0.031,0.0309,0,0.049,0.053,0.0599,0.0652,0.0664,0.0696,0.0723,0.0745,0.0729,0.0718,0.0695,0.0656,0.062,0.0602,0.0494,0.0529,0.0456,0.0404,0.0397,0.033,0.0295,0.0292,0.0293,0.0294,0.0295,0.0296,0.0297,0,0.0505,0.0574,0.0635,0.0655,0.0711,0.0738,0.0766,0.0768,0.0776,0.0757,0.0735,0.0685,0.0644,0.0562,0.0445,0.0466,0.0309,0.0317,0.0206,0.0201,0.0255,0.0256,0.0237,0.0237,0.0238,0.0238,0.0239,0,0.0535,0.0582,0.0651,0.0686,0.0748,0.0774,0.0822,0.0829,0.0823,0.0815,0.0771,0.073,0.0633,0.0525,0.0435,0.0279,0.0289,0.0202,0.0163,0.0283,0.0289,0.0248,0.0251,0.0233,0.0234,0.0235,0.0236,0,0.054,0.0589,0.0661,0.0735,0.0762,0.0808,0.0862,0.0875,0.0872,0.0852,0.084,0.0747,0.0609,0.0485,0.0329,0.0252,0.012,0.0063,0.0173,0.0145,0.0041,0.0049,-0.0071,-0.0074,-0.0076,-0.0078,-0.008,0,0.0546,0.0589,0.0691,0.0738,0.078,0.0849,0.0881,0.0902,0.0902,0.0851,0.0823,0.0696,0.0616,0.0354,0.024,0.004,0.0025,-0.0051,0.0029,0.0035,0.001,0.0022,0.0033,-0.0083,-0.0084,-0.0084,-0.0085,0,0.0554,0.0597,0.0654,0.075,0.0808,0.0866,0.0911,0.0903,0.0901,0.0894,0.0786,0.0656,0.049,0.0326,0.0159,0.0028,0.0001,-0.0074,-0.0069,0.0005,0.0019,-0.0001,0.0012,-0.0093,-0.0092,-0.0091,-0.0091,0,0.0551,0.0586,0.0663,0.0742,0.0813,0.0847,0.0885,0.0872,0.0867,0.0807,0.0767,0.0611,0.0534,0.0315,0.0164,0.0024,0.001,-0.0011,-0.0009,-0.0002,0.0073,0.0104,-0.0024,0,0,0,0,0,0.0541,0.0573,0.0648,0.0724,0.0791,0.0834,0.0876,0.0898,0.0884,0.0806,0.0789,0.0636,0.0406,0.0312,0.0163,0.0127,-0.0014,-0.0051,-0.0038,-0.0136,-0.0127,-0.0052,0,0,0,0,0,0,0.0532,0.0593,0.0628,0.0683,0.0732,0.0791,0.0819,0.0826,0.0785,0.0764,0.0645,0.0599,0.0381,0.0488,0.0159,0.0117,0.0105,-0.0149,-0.0152,-0.0141,-0.0133,-0.0126,-0.0046,0,0,0,0,0]}]]